Location: Unspecified
(48.8656°N, 0.0000°E)
Time: 16:35:02
(UTC+00:00)

Transit 2A Rocket - Pass Details

Date: 25 June 2019
Orbit: 588 x 915 km, 66.7° (Epoch: 16 July)

Event Time Altitude Azimuth Distance (km) Brightness Sun altitude
Rises 17:01:36 0° 325° (NW) 3,355 8.9 27.3°
Reaches altitude 10° 17:04:15 10° 332° (NNW) 2,367 8.1 26.8°
Maximum altitude 17:09:27 46° 45° (NE) 989 5.6 26.0°
Drops below altitude 10° 17:14:09 10° 119° (ESE) 2,143 6.9 25.2°
Sets 17:16:27 0° 126° (SE) 3,006 7.6 24.8°
